Miscellaneous Local Product
Issued by NWS North Platte, NE

Home | Current Version | Previous Version | Text Only | Print | Product List | Glossary On
Versions: 1 2 3 4 5 6 7 8 9 10 11 12 13 14 15 16 17 18 19 20 21 22 23 24 25 26 27 28 29 30 31 32 33 34 35 36 37 38 39 40 41 42 43 44 45 46 47 48 49 50
000
AXUS43 KLBF 240910
MISLBF


WESTERN AND NORTH CENTRAL NEBRASKA HOURLY WEATHER ROUNDUP
NATIONAL WEATHER SERVICE NORTH PLATTE NE
300 AM CST FRI FEB 24 2017

NOTE: "FAIR" INDICATES FEW OR NO CLOUDS BELOW 12,000 FEET WITH NO
SIGNIFICANT WEATHER AND/OR OBSTRUCTIONS TO VISIBILITY.

NOTE: STATIONS NOT REPORTING VARIABLES SUCH AS SKY/WEATHER OR
PRESSURE ARE PROVIDED BY RAWS AND APRS NETWORKS AND ARE NOT UNDER
NATIONAL WEATHER SERVICE QUALITY CONTROL.

...OBSERVATIONS IN AND NEAR THE EASTERN PANHANDLE OF NEBRASKA...

CITY           SKY/WX    TMP DP  RH WIND       PRES   REMARKS
PINE RIDGE     LGT SNOW  23  20  88 VRB5      29.95S FOG     WCI  17
CHADRON        LGT SNOW  22  19  89 NE9       29.97S FOG     WCI  12
ALLIANCE       LGT SNOW  20  17  88 N16       29.89R FOG     WCI   6
SIDNEY         LGT SNOW  20  16  84 N15       29.86S FOG     WCI   6
CRESCENT LAKE    N/A     19  18  94 N16G23      N/A  WCI   4
$$

...OBSERVATIONS IN NORTHERN NEBRASKA AND FAR SOUTHERN SOUTH DAKOTA...

CITY           SKY/WX    TMP DP  RH WIND       PRES   REMARKS
WINNER         CLOUDY    24  20  84 N24       29.95R WCI   8
VALENTINE      CLOUDY    23  19  85 N16G26    29.91S FOG     WCI  10
THEDFORD       LGT SNOW  24  21  91 N20G25    29.85R WCI   9
AINSWORTH        N/A     23  22  96 N28       29.87S WCI   6
O`NEILL        CLOUDY    25  23  95 N23G30    29.83S WCI   9
ORD            SNOW      25  21  85 N21G29    29.77R VSB 1/2 WCI  11
BROKEN BOW     LGT SNOW  24  22  91 N28G35    29.78R VSB 3/4 WCI   7
VALENTINE NWR    N/A     22  20  93 N15G26      N/A  WCI   9
BUTTE            N/A     21  19  93 N21G32      N/A  WCI   5
HALSEY           N/A     21  19  93 N12G22      N/A  WCI   9
CHAMBERS         N/A     23  21  93 N6G13       N/A  WCI  16
EWING            N/A     24  23  95 N8G18       N/A  WCI  15
$$

...OBSERVATIONS IN SOUTHWEST NEBRASKA AND FAR NORTHEAST COLORADO...

CITY           SKY/WX    TMP DP  RH WIND       PRES   REMARKS
HOLYOKE        LGT SNOW  25  21  86 N12       29.85S WCI  14
IMPERIAL       LGT SNOW  23  19  85 N17       29.84R FOG     WCI   9
OGALLALA       LGT SNOW  24  20  86 N23G29    29.85S WCI   8
NORTH PLATTE   LGT SNOW  23  19  85 N22G30    29.81S VSB 3/4 WCI   8
MCCOOK         CLOUDY    25  21  85 N18       29.81R WCI  11
LEXINGTON      LGT SNOW  25  21  85 N17       29.78R WCI  12
STAPLETON        N/A     20  19  93 MISG        N/A
GOTHENBURG       N/A     25  23  90 NW12        N/A  WCI  14
CALLAWAY         N/A     22  21  94 N18         N/A  WCI   8
$$

...OBSERVATIONS IN CENTRAL LINCOLN COUNTY AREA...

CITY           SKY/WX    TMP DP  RH WIND       PRES   REMARKS
N.P. AIRPORT   LGT SNOW  23  19  85 N22G30    29.81S VSB 3/4 WCI   8
N.P. DOWNTOWN    N/A     22  20  90 N13G25      N/A  WCI  10
N.P. SOUTHEAST   N/A     22  20  91 N12G21      N/A  WCI  11
N.P. HILLCREST   N/A     22  20  93 N24G32      N/A  WCI   6
$$

...SOME OBSERVATIONS FROM AROUND THE REGION...

CITY           SKY/WX    TMP DP  RH WIND       PRES   REMARKS
LARAMIE        CLOUDY     7   4  87 CALM      29.74R
CHEYENNE       LGT SNOW  13  10  88 NW5       29.80F FOG     WCI   5
DENVER         LGT SNOW  18  14  84 N8        29.83F FOG     WCI   8
AKRON          FLURRIES  17  15  92 N9        29.84R WCI   6
SCOTTSBLUFF    LGT SNOW  22  17  81 N14       29.91R WCI   9
RAPID CITY     LGT SNOW  24  21  88 N13       29.99S FOG     WCI  12
BISMARCK       CLEAR     15  11  83 W6        30.16S WCI   6
PIERRE         CLOUDY    23  15  71 NE17G29   30.02R WCI   9
SIOUX FALLS    CLOUDY    26  23  88 N22G32    29.83S WCI  12
OMAHA          CLOUDY    35  29  78 N21G28    29.63R WCI  24
GRAND ISLAND   FRZ RAIN  27  26  96 N23G29    29.73R FOG     WCI  12
KANSAS CITY    CLOUDY    42  39  89 NW8       29.48R
WICHITA        CLOUDY    37  31  78 NW26G36   29.67R WCI  25
OKLAHOMA CITY  PTCLDY    42  35  76 N22G28    29.71R
DALLAS         PTCLDY    63  57  81 SW7       29.56F
AMARILLO       PTCLDY    30  26  85 N17       29.80R WCI  18
DODGE CITY     CLEAR     28  21  75 NW18      29.77R WCI  15
HAYS           CLOUDY    31  25  78 N18       29.76R WCI  19
GOODLAND       CLOUDY    23  19  85 N21       29.81R WCI   8
$$




USA.gov is the U.S. government's official web portal to all federal, state and local government web resources and services.